EUTELSAT 48A

Last updated on May 15, 2017, 12:17 a.m. UTC

1 24665U 96067A   17134.27477285 -.00000055  00000-0  00000-0 0  9990
2 24665   6.3104  55.3326 0009203  39.3710 158.9727  0.98382016 75378
UTC
Height (km)
Latitude
Longitude
Inclination
Orbital Period
UTC large
Height (km)
Speed (km/s)
/
Latitude / Longitude
Inclination (degrees)
Orbital Period (minutes)
Azimuth
Elevation
Range (km)
Doppler Factor
iOS Compass Heading
iOS Angle

Next 30 passes for location: Hong Kong

Rise time Rise Azimuth (degrees) Set time Set Azimuth (degrees) Duration Max altitude (degrees)

No matching passes for this satellites